{"data":{"norad_id":57058,"epoch":"2026-05-25T02:33:50.357376Z","epoch_age_seconds":59829,"freshness":"FRESH","line1":"1 57058U 23088L   26145.10683284  .00001495  00000+0  63845-4 0  9994","line2":"2 57058  43.0059  38.7418 0001579 268.7368  91.3303 15.27573985162023","mean_motion":15.27573985,"eccentricity":0.0001579,"inclination_deg":43.0059,"raan_deg":38.7418,"arg_perigee_deg":268.7368,"mean_anomaly_deg":91.3303,"bstar":6.3845e-5,"rev_number":16202,"period_min":94.267119899924,"perigee_km":481.98372304412,"apogee_km":484.15049130116,"semimajor_km":6861.2041071726,"source":"CELESTRAK","updated_at":"2026-05-25T13:38:18.210069Z"}}